Regional Weather Roundup
Issued by NWS

Home | Current Version | Previous Version | Text Only | Print | Product List | Glossary On
Versions: 1 2 3 4 5 6 7 8 9 10 11 12 13 14 15 16 17 18 19 20 21 22 23 24 25 26 27 28 29 30 31 32 33 34 35 36 37 38 39 40 41 42 43 44 45 46 47 48 49 50
289
ASUS44 KJAN 310003
RWRMS

MISSISSIPPI HOURLY WEATHER ROUNDUP
NATIONAL WEATHER SERVICE JACKSON MS
600 PM CST FRI JAN 30 2015

NOTE: "FAIR: INDICATES FEW OR NO CLOUDS BELOW 12,000 FEET WITH NO
SIGNIFICANT WEATHER AND/OR OBSTRUCTIONS TO VISIBILITY.

MSZ001>002-007>008-010>013-018>021-025>028-034>036-310100-
NORTHWEST MISSISSIPPI

CITY           SKY/WX    TMP DP  RH WIND       PRES   REMARKS
CLARKSDALE     FAIR      41  32  70 N7        30.44R
CLEVELAND      FAIR      43  35  75 N7        30.42S
GREENWOOD      PTCLDY    48  30  49 N5        30.40R
6HR MIN TEMP:  48; 6HR MAX TEMP:  55;

GREENVILLE     PTCLDY    45  30  55 NE8       30.41S
6HR MIN TEMP:  45; 6HR MAX TEMP:  52;

GRENADA        FAIR      45  30  57 N5        30.41R
OLIVE BRANCH   PTCLDY    39  27  60 NE6       30.42F WCI  35
OXFORD         FAIR      45  23  42 N5        30.42S
TUNICA         PTCLDY    41  28  60 N8        30.44S
$$

MSZ003>006-009-014>017-022>024-029>033-037>039-310100-
NORTHEAST MISSISSIPPI

CITY           SKY/WX    TMP DP  RH WIND       PRES   REMARKS
COLUMBUS AFB   PTCLDY    45  24  42 N6        30.40R
6HR MIN TEMP:  45; 6HR MAX TEMP:  53;

CORINTH        FAIR      45  23  42 N5        30.42R
GOLDN TRIANGLE CLEAR     46  27  46 N7        30.38S
STARKVILLE     FAIR      46  30  53 N5        30.39S
TUPELO         CLEAR     43  23  45 NE6       30.41R
6HR MIN TEMP:  43; 6HR MAX TEMP:  50;

$$

MSZ040-058-310100-
CENTRAL MISSISSIPPI

CITY           SKY/WX    TMP DP  RH WIND       PRES   REMARKS
JACKSON INTL   PTCLDY    46  31  55 N5        30.36S
6HR MIN TEMP:  46; 6HR MAX TEMP:  58;

JACKSON HAWKNS MOCLDY    52  28  39 N3        30.37R
6HR MIN TEMP:  51; 6HR MAX TEMP:  57;

MERIDIAN KEY   PTCLDY    48  29  47 N8        30.36S
6HR MIN TEMP:  48; 6HR MAX TEMP:  58;

MERIDIAN NAS   PTCLDY    47  28  47 N6        30.37S
6HR MIN TEMP:  47; 6HR MAX TEMP:  56;

RAYMOND        FAIR      50  46  87 MISG      30.37S
VICKSBURG      PTCLDY    48  33  56 N7        30.40R
6HR MIN TEMP:  48; 6HR MAX TEMP:  56;

$$

MSZ059>079-310100-
SOUTH MISSISSIPPI

CITY           SKY/WX    TMP DP  RH WIND       PRES   REMARKS
BROOKHAVEN     FAIR      46  34  61 CALM      30.37R
HATTIESBURG    MOCLDY    52  30  43 CALM      30.35R
6HR MIN TEMP:  52; 6HR MAX TEMP:  61;

MCCOMB         MOCLDY    53  31  42 N5        30.35R
6HR MIN TEMP:  52; 6HR MAX TEMP:  60;

NATCHEZ        MOCLDY    50  30  46 N6        30.37S
6HR MIN TEMP:  50; 6HR MAX TEMP:  55;

PINE BELT      MOCLDY    48  30  49 N3        30.35S
6HR MIN TEMP:  48; 6HR MAX TEMP:  59;

$$

MSZ080>082-310100-
COASTAL MISSISSIPPI

CITY           SKY/WX    TMP DP  RH WIND       PRES   REMARKS
BAY ST LOUIS   CLEAR     46  36  66 CALM      30.32R
BILOXI         PTCLDY    53  37  55 N5        30.31R
6HR MIN TEMP:  53; 6HR MAX TEMP:  62;

PASCAGOULA     PTCLDY    51  35  54 N5        30.32R
6HR MIN TEMP:  50; 6HR MAX TEMP:  63;

GULFPORT       PTCLDY    53  34  48 N6        30.31R
6HR MIN TEMP:  53; 6HR MAX TEMP:  63;

$$



USA.gov is the U.S. government's official web portal to all federal, state and local government web resources and services.